Time,TemperatureF,DewpointF,PressureIn,WindDirection,WindDirectionDegrees,WindSpeedMPH,WindSpeedGustMPH,Humidity,HourlyPrecipIn,Conditions,Clouds,dailyrainin,SolarRadiationWatts/m^2,SoftwareType,DateUTC
2013-11-27 00:02:00,17.0,10.0,-100.00,NNW,338,5.0,11.0,74,0.00,,,0.02,0.000000,,2013-11-27 07:02:00,
2013-11-27 00:42:00,13.0,9.0,-100.00,NW,317,2.0,7.0,84,0.00,,,0.02,0.000000,,2013-11-27 07:42:00,
2013-11-27 00:52:00,13.0,9.0,-100.00,NW,317,2.0,7.0,84,0.00,,,0.02,0.000000,,2013-11-27 07:52:00,
2013-11-27 01:02:00,13.0,9.0,-100.00,NW,317,2.0,7.0,84,0.00,,,0.02,0.000000,,2013-11-27 08:02:00,
2013-11-27 01:43:00,14.0,9.0,-100.00,WNW,303,3.0,9.0,79,0.00,,,0.02,0.000000,,2013-11-27 08:43:00,
2013-11-27 01:52:00,14.0,9.0,-100.00,WNW,303,3.0,9.0,79,0.00,,,0.02,0.000000,,2013-11-27 08:52:00,
2013-11-27 02:02:00,14.0,9.0,-100.00,WNW,303,3.0,9.0,79,0.00,,,0.02,0.000000,,2013-11-27 09:02:00,
2013-11-27 02:43:00,11.0,7.0,-100.00,NW,314,3.0,5.0,82,0.00,,,0.02,0.000000,,2013-11-27 09:43:00,
2013-11-27 02:54:00,11.0,7.0,-100.00,NW,314,3.0,5.0,82,0.00,,,0.02,0.000000,,2013-11-27 09:54:00,
2013-11-27 03:03:00,11.0,7.0,-100.00,NW,314,3.0,5.0,82,0.00,,,0.02,0.000000,,2013-11-27 10:03:00,
2013-11-27 03:42:00,13.0,8.0,-100.00,NW,314,2.0,5.0,81,0.00,,,0.02,0.000000,,2013-11-27 10:42:00,
2013-11-27 03:53:00,13.0,8.0,-100.00,NW,314,2.0,5.0,81,0.00,,,0.02,0.000000,,2013-11-27 10:53:00,
2013-11-27 04:02:00,13.0,8.0,-100.00,NW,314,2.0,5.0,81,0.00,,,0.02,0.000000,,2013-11-27 11:02:00,
2013-11-27 04:42:00,11.0,6.0,-100.00,NW,306,3.0,5.0,81,0.00,,,0.02,0.000000,,2013-11-27 11:42:00,
2013-11-27 04:53:00,11.0,6.0,-100.00,NW,306,3.0,5.0,81,0.00,,,0.02,0.000000,,2013-11-27 11:53:00,
2013-11-27 05:02:00,11.0,6.0,-100.00,NW,306,3.0,5.0,81,0.00,,,0.02,0.000000,,2013-11-27 12:02:00,
2013-11-27 05:42:00,12.0,7.0,-100.00,NW,323,3.0,5.0,80,0.00,,,0.02,0.000000,,2013-11-27 12:42:00,
2013-11-27 05:52:00,12.0,7.0,-100.00,NW,323,3.0,5.0,80,0.00,,,0.02,0.000000,,2013-11-27 12:52:00,
2013-11-27 06:03:00,12.0,7.0,-100.00,NW,323,3.0,5.0,80,0.00,,,0.02,0.000000,,2013-11-27 13:03:00,
2013-11-27 06:42:00,10.0,6.0,-100.00,NW,316,3.0,5.0,83,0.00,,,0.02,0.000000,,2013-11-27 13:42:00,
2013-11-27 06:52:00,10.0,6.0,-100.00,NW,316,3.0,5.0,83,0.00,,,0.02,0.000000,,2013-11-27 13:52:00,
2013-11-27 07:02:00,10.0,6.0,-100.00,NW,316,3.0,5.0,83,0.00,,,0.02,0.000000,,2013-11-27 14:02:00,
2013-11-27 07:42:00,9.0,4.0,-100.00,NNW,330,1.0,5.0,80,0.00,,,0.02,1.000000,,2013-11-27 14:42:00,
2013-11-27 07:53:00,9.0,4.0,-100.00,NNW,330,1.0,5.0,80,0.00,,,0.02,1.000000,,2013-11-27 14:53:00,
2013-11-27 08:02:00,9.0,4.0,-100.00,NNW,330,1.0,5.0,80,0.00,,,0.02,1.000000,,2013-11-27 15:02:00,
2013-11-27 08:44:00,17.0,9.0,-100.00,North,349,3.0,5.0,71,0.00,,,0.02,74.000000,,2013-11-27 15:44:00,
2013-11-27 08:53:00,17.0,9.0,-100.00,North,349,3.0,5.0,71,0.00,,,0.02,74.000000,,2013-11-27 15:53:00,
2013-11-27 09:04:00,17.0,9.0,-100.00,North,349,3.0,5.0,71,0.00,,,0.02,74.000000,,2013-11-27 16:04:00,
2013-11-27 09:43:00,27.0,14.0,-100.00,NNE,12,2.0,4.0,57,0.00,,,0.02,279.000000,,2013-11-27 16:43:00,
2013-11-27 09:53:00,27.0,14.0,-100.00,NNE,12,2.0,4.0,57,0.00,,,0.02,279.000000,,2013-11-27 16:53:00,
2013-11-27 10:02:00,27.0,14.0,-100.00,NNE,12,2.0,4.0,57,0.00,,,0.02,279.000000,,2013-11-27 17:02:00,
2013-11-27 11:52:00,41.0,10.0,-100.00,North,1,4.0,8.0,27,0.01,,,0.02,584.000000,,2013-11-27 18:52:00,
2013-11-27 12:02:00,41.0,10.0,-100.00,North,1,4.0,8.0,27,0.01,,,0.02,584.000000,,2013-11-27 19:02:00,
2013-11-27 12:42:00,43.0,10.0,-100.00,NE,36,5.0,9.0,26,0.01,,,0.03,638.000000,,2013-11-27 19:42:00,
2013-11-27 12:52:00,43.0,10.0,-100.00,NE,36,5.0,9.0,26,0.01,,,0.03,638.000000,,2013-11-27 19:52:00,
2013-11-27 13:02:00,43.0,10.0,-100.00,NE,36,5.0,9.0,26,0.01,,,0.03,638.000000,,2013-11-27 20:02:00,
2013-11-27 13:42:00,45.0,12.0,-100.00,North,11,4.0,10.0,26,0.01,,,0.03,620.000000,,2013-11-27 20:42:00,
2013-11-27 13:52:00,45.0,12.0,-100.00,North,11,4.0,10.0,26,0.01,,,0.03,620.000000,,2013-11-27 20:52:00,
2013-11-27 14:02:00,45.0,12.0,-100.00,North,11,4.0,10.0,26,0.01,,,0.03,620.000000,,2013-11-27 21:02:00,
2013-11-27 14:43:00,44.0,12.0,-100.00,NNW,347,5.0,11.0,27,0.01,,,0.04,489.000000,,2013-11-27 21:43:00,
2013-11-27 14:53:00,44.0,12.0,-100.00,NNW,347,5.0,11.0,27,0.01,,,0.04,489.000000,,2013-11-27 21:53:00,
2013-11-27 15:03:00,44.0,12.0,-100.00,NNW,347,5.0,11.0,27,0.01,,,0.04,489.000000,,2013-11-27 22:03:00,
2013-11-27 15:43:00,43.0,11.0,-100.00,North,2,6.0,10.0,27,0.01,,,0.05,366.000000,,2013-11-27 22:43:00,
2013-11-27 15:52:00,43.0,11.0,-100.00,North,2,6.0,10.0,27,0.01,,,0.05,366.000000,,2013-11-27 22:52:00,
2013-11-27 16:02:00,43.0,11.0,-100.00,North,2,6.0,10.0,27,0.01,,,0.05,366.000000,,2013-11-27 23:02:00,
2013-11-27 16:43:00,38.0,9.0,-100.00,NNW,344,3.0,9.0,30,0.01,,,0.06,199.000000,,2013-11-27 23:43:00,
2013-11-27 16:53:00,38.0,9.0,-100.00,NNW,344,3.0,9.0,30,0.01,,,0.06,199.000000,,2013-11-27 23:53:00,
2013-11-27 17:02:00,38.0,9.0,-100.00,NNW,344,3.0,9.0,30,0.01,,,0.06,199.000000,,2013-11-28 00:02:00,
2013-11-27 17:42:00,32.0,10.0,-100.00,NW,310,4.0,7.0,39,0.00,,,0.06,11.000000,,2013-11-28 00:42:00,
2013-11-27 17:52:00,32.0,10.0,-100.00,NW,310,4.0,7.0,39,0.00,,,0.06,11.000000,,2013-11-28 00:52:00,
2013-11-27 18:01:00,32.0,10.0,-100.00,NW,310,4.0,7.0,39,0.00,,,0.06,11.000000,,2013-11-28 01:01:00,
2013-11-27 18:42:00,28.0,10.0,-100.00,NNW,330,4.0,6.0,47,0.00,,,0.06,0.000000,,2013-11-28 01:42:00,
2013-11-27 18:52:00,28.0,10.0,-100.00,NNW,330,4.0,6.0,47,0.00,,,0.06,0.000000,,2013-11-28 01:52:00,
2013-11-27 19:02:00,28.0,10.0,-100.00,NNW,330,4.0,6.0,47,0.00,,,0.06,0.000000,,2013-11-28 02:02:00,
2013-11-27 19:52:00,27.0,10.0,-100.00,WNW,292,2.0,8.0,48,0.00,,,0.06,0.000000,,2013-11-28 02:52:00,
2013-11-27 20:02:00,27.0,10.0,-100.00,WNW,292,2.0,8.0,48,0.00,,,0.06,0.000000,,2013-11-28 03:02:00,
2013-11-27 20:44:00,24.0,11.0,-100.00,NNW,343,3.0,4.0,56,0.00,,,0.06,0.000000,,2013-11-28 03:44:00,
2013-11-27 20:53:00,24.0,11.0,-100.00,NNW,343,3.0,4.0,56,0.00,,,0.06,0.000000,,2013-11-28 03:53:00,
2013-11-27 21:04:00,24.0,11.0,-100.00,NNW,343,3.0,4.0,56,0.00,,,0.06,0.000000,,2013-11-28 04:04:00,
2013-11-27 21:43:00,21.0,11.0,-100.00,NW,321,1.0,6.0,66,0.00,,,0.06,0.000000,,2013-11-28 04:43:00,
2013-11-27 21:52:00,21.0,11.0,-100.00,NW,321,1.0,6.0,66,0.00,,,0.06,0.000000,,2013-11-28 04:52:00,
2013-11-27 22:02:00,21.0,11.0,-100.00,NW,321,1.0,6.0,66,0.00,,,0.06,0.000000,,2013-11-28 05:02:00,
2013-11-27 22:43:00,20.0,12.0,-100.00,NNW,332,2.0,6.0,70,0.00,,,0.06,0.000000,,2013-11-28 05:43:00,
2013-11-27 22:53:00,20.0,12.0,-100.00,NNW,332,2.0,6.0,70,0.00,,,0.06,0.000000,,2013-11-28 05:53:00,
2013-11-27 23:03:00,20.0,12.0,-100.00,NNW,332,2.0,6.0,70,0.00,,,0.06,0.000000,,2013-11-28 06:03:00,
2013-11-27 23:42:00,18.0,11.0,-100.00,NW,308,3.0,5.0,73,0.00,,,0.06,0.000000,,2013-11-28 06:42:00,
2013-11-27 23:52:00,18.0,11.0,-100.00,NW,308,3.0,5.0,73,0.00,,,0.06,0.000000,,2013-11-28 06:52:00,